Regional Weather Roundup
Issued by NWS

Home | Current Version | Previous Version | Graphics & Text | Print | Product List | Glossary On
Versions: 1 2 3 4 5 6 7 8 9 10 11 12 13 14 15 16 17 18 19 20 21 22 23 24 25 26 27 28 29 30 31 32 33 34 35 36 37 38 39 40 41 42 43 44 45 46 47 48 49 50
000
ASUS43 KLSX 041059
RWRMO

WEATHER SUMMARY FOR MISSOURI
NATIONAL WEATHER SERVICE SPRINGFIELD MO
500 AM CST WED MAR 04 2015

NOTE: "FAIR" INDICATES FEW OR NO CLOUDS BELOW 12,000 FEET WITH NO
       SIGNIFICANT WEATHER AND/OR OBSTRUCTIONS TO VISIBILITY.
       CURRENT SKY AND/OR WEATHER CONDITIONS ARE NOT AVAILABLE FOR
       CHILLICOTHE AND FARMINGTON.

MOZ001>031-035>038-043-044-053-054-041200-
...NORTHERN AND WESTERN MISSOURI...

CITY           SKY/WX    TMP DP  RH WIND       PRES   REMARKS
KANSAS CTY INT CLOUDY    19   6  57 N15       30.18R WCI   5
KANSAS C DTWN  CLOUDY    22   6  50 N12G21    30.21R WCI  10
LEE`S SUMMIT   CLOUDY    21   8  57 N20       30.17R WCI   6
ST JOSEPH      CLOUDY    19   6  57 N14       30.22R WCI   6
CHILLICOTHE      N/A     20   8  60 N13G20    30.19R WCI   7

$$
MOZ066>068-077>081-088>096-101>105-041200-
...SOUTHWEST MISSOURI...

CITY           SKY/WX    TMP DP  RH WIND       PRES   REMARKS
SPRINGFIELD    CLOUDY    33  29  85 N15       30.00R WCI  23
JOPLIN         CLOUDY    32  27  81 N14G25    30.04R HAZE    WCI  22

$$
MOZ032>034-039>042-045>050-055>058-069>072-041200-
...CENTRAL MISSOURI...

CITY           SKY/WX    TMP DP  RH WIND       PRES   REMARKS
COLUMBIA       CLOUDY    26  18  71 N23G30    30.07R WCI  11
JEFFERSON CITY CLOUDY    29  16  58 N14G24    30.08R WCI  18
ROLLA          CLOUDY    31  28  89 N13       30.00R WCI  21
SEDALIA        CLOUDY    27  20  75 N22       30.13R WCI  13
WHITEMAN AFB   LGT SNOW  23  16  74 N20G28    30.12R WCI   8
OSAGE BEACH    CLOUDY    30  27  86 NW9       30.04R WCI  22

$$
MOZ051-052-059>065-041200-
...EAST CENTRAL MISSOURI...

CITY           SKY/WX    TMP DP  RH WIND       PRES   REMARKS
ST LOUIS INTL  FLURRIES  32  24  72 N15G22    30.03R WCI  22
SPIRIT OF STL  CLOUDY    30  22  72 N17       30.03R WCI  18
ST CHARLES     CLOUDY    29  21  72 N16       30.05R WCI  17

$$
MOZ072>076-082>087-097>100-106>115-041200-
...SOUTH CENTRAL AND SOUTHEAST MISSOURI...

CITY           SKY/WX    TMP DP  RH WIND       PRES   REMARKS
CAPE GIRARDEAU RAIN      37  35  92 N16       29.97R FOG     WCI  28
FARMINGTON     CLOUDY    32  30  93 N7        30.01R WCI  26
POPLAR BLUFF   LGT RAIN  41  38  89 N8        29.94R FOG
WEST PLAINS    CLOUDY    35  33  92 N13       29.95R WCI  26

$$



USA.gov is the U.S. government's official web portal to all federal, state and local government web resources and services.